Location: Gro� Glienicke
(52.4675°N, 13.1079°E)
Time: 18:02:35
(UTC+00:00)

Meteor 2-6 Rocket - Pass Details

Date: 06 July 2020
Orbit: 804 x 916 km, 81.3° (Epoch: 13 August)

Event Time Altitude Azimuth Distance (km) Brightness Sun altitude
Rises 23:16:56 0° 347° (NNW) 3,397 9.0 -15.0°
Reaches altitude 10° 23:19:23 10° 348° (NNW) 2,444 7.9 -15.0°
Maximum altitude 23:24:54 82° 77° (ENE) 831 4.2 -14.9°
Enters shadow 23:28:38 21° 163° (SSE) 1,759 5.3 -14.9°
